GFSSW_850_dewp_288.txt.gz
Dewpoint
-28 -27 -26 -22 -17 -17 -17 -18 -20 -19 -21 -24 -23 -21 -21 -25 -14 -13 -22 -14 -13 -10 -9 -9 -9 -8 -6 -6 -7 -5 -5 -4 -6 -7 -6 -5 -2 -2 -2 -3 -4 -4 -4 -4 -5
-27 -27 -26 -23 -19 -16 -17 -18 -19 -19 -19 -23 -22 -24 -16 -20 -13 -9 -20 -19 -11 -10 -10 -9 -10 -8 -7 -7 -7 -5 -5 -7 -8 -7 -4 -4 -1 -2 -3 -3 -4 -4 -4 -4 -4
-25 -25 -25 -24 -21 -16 -14 -17 -19 -19 -19 -22 -22 -23 -20 -12 -8 -20 -21 -19 -10 -10 -10 -9 -10 -8 -7 -7 -6 -5 -6 -8 -7 -7 -6 -4 -1 -4 -3 -3 -4 -4 -4 -3 -3
-24 -24 -23 -22 -22 -18 -14 -15 -18 -20 -19 -22 -23 -18 -25 -18 -16 -23 -19 -19 -11 -9 -12 -10 -10 -8 -8 -9 -7 -5 -6 -7 -7 -7 -6 -1 -2 -3 -3 -3 -4 -4 -4 -4 -3
-21 -22 -21 -21 -20 -18 -14 -15 -16 -19 -18 -22 -23 -19 -20 -16 -19 -24 -20 -17 -10 -10 -15 -11 -9 -9 -7 -9 -8 -5 -6 -7 -8 -7 -2 -1 0 -1 -2 -5 -5 -4 -4 -4 -3
-18 -20 -18 -18 -19 -17 -14 -14 -16 -18 -18 -22 -23 -19 -16 -14 -19 -23 -23 -15 -13 -12 -11 -9 -8 -8 -8 -9 -7 -7 -7 -7 -7 -6 -3 -0 -2 -2 -3 -5 -4 -4 -4 -4 -3
-8 -17 -16 -14 -16 -17 -13 -13 -16 -19 -20 -21 -23 -17 -16 -18 -22 -23 -22 -14 -14 -14 -10 -9 -9 -9 -9 -8 -8 -7 -7 -8 -6 -4 -2 -2 -0 -1 -5 -5 -5 -4 -4 -4 -4
-1 -10 -15 -12 -12 -14 -13 -13 -17 -18 -20 -21 -20 -16 -14 -18 -21 -22 -20 -15 -14 -14 -10 -9 -8 -9 -10 -10 -8 -7 -7 -6 -7 -3 -3 -3 -1 -2 -6 -6 -5 -4 -4 -4 -4
4 -3 -8 -4 -6 -11 -11 -12 -14 -17 -21 -20 -15 -15 -16 -18 -20 -21 -22 -18 -13 -10 -10 -9 -8 -10 -11 -8 -10 -6 -6 -6 -6 -5 -3 -3 -0 -3 -6 -7 -5 -4 -4 -4 -4
7 6 4 -1 -1 -2 -6 -5 -7 -15 -21 -20 -19 -17 -17 -18 -20 -23 -20 -17 -12 -11 -11 -9 -12 -10 -9 -7 -7 -6 -5 -6 -5 -7 -4 -0 -1 -3 -6 -7 -6 -4 -4 -4 -5
7 7 7 7 4 2 1 -4 -8 -10 -12 -16 -15 -16 -13 -18 -21 -17 -21 -18 -13 -11 -11 -10 -12 -8 -9 -9 -8 -7 -6 -5 -6 -8 -5 0 -2 -4 -5 -7 -7 -6 -5 -5 -5
6 7 8 8 5 1 -0 -3 -6 -1 -4 -10 -11 -16 -18 -20 -18 -17 -17 -13 -12 -12 -13 -13 -13 -12 -10 -9 -8 -7 -5 -5 -8 -8 -5 -1 -2 -4 -5 -7 -8 -7 -5 -5 -5
7 7 8 8 7 5 0 1 3 2 1 -4 -15 -12 -18 -19 -15 -14 -15 -12 -13 -12 -14 -18 -14 -10 -10 -9 -7 -7 -5 -6 -6 -7 -2 -1 -2 -5 -7 -8 -9 -8 -7 -6 -5
8 8 8 8 7 4 2 2 4 4 5 -2 -15 -14 -17 -15 -12 -12 -12 -11 -12 -13 -10 -14 -12 -9 -10 -10 -8 -5 -7 -7 -6 -3 -1 -1 -1 -4 -7 -8 -9 -8 -7 -6 -6
8 7 8 8 7 4 5 3 4 4 9 -13 -14 -16 -15 -14 -15 -11 -12 -11 -11 -12 -12 -11 -12 -9 -12 -11 -9 -7 -8 -6 -4 -2 -1 -2 -3 -5 -7 -8 -8 -8 -7 -7 -6
9 8 8 8 7 6 5 4 4 6 9 -11 -13 -14 -15 -15 -14 -11 -10 -10 -9 -9 -11 -14 -11 -10 -10 -10 -10 -10 -5 -8 -2 -2 -4 -5 -3 -4 -6 -7 -7 -8 -8 -7 -6
7 8 8 7 7 6 4 5 6 8 -7 -8 -10 -10 -10 -14 -13 -8 -4 -5 -6 -1 -5 -8 -13 -11 -9 -11 -10 -7 -8 -11 -11 -8 -7 -5 -3 -6 -7 -7 -9 -8 -8 -8 -7
7 7 8 7 6 5 5 4 7 6 -2 -5 -10 -9 -13 -12 -13 -11 -5 -3 -5 -3 -4 -5 -8 -10 -9 -9 -8 -7 -7 -10 -25 -7 -5 -3 -3 -4 -7 -9 -9 -8 -8 -8 -7
7 8 7 6 5 4 4 6 6 5 -6 -7 -8 2 -1 -12 -8 -9 -7 -5 -6 -5 -5 -4 -10 -10 -9 -10 -12 -9 -6 -7 -8 -7 -3 -3 -4 -6 -8 -10 -9 -8 -9 -9 -8
7 6 5 4 4 4 3 6 5 -4 -2 -1 4 -7 -11 -10 -8 -3 -7 -5 -4 -7 -6 -5 -4 -11 -9 -10 -11 -9 -9 -10 -8 -13 -12 -5 -4 -4 -7 -9 -9 -9 -8 -9 -8
6 4 3 3 2 3 4 4 -2 -3 -2 -0 1 3 -6 -7 -7 -4 -5 -6 -6 -6 -6 -6 -7 -4 -10 -7 -7 -7 -10 -7 -6 -7 -8 -5 -7 -10 -10 -11 -11 -9 -8 -9 -9
4 2 1 1 2 2 3 0 -3 -3 -1 -0 -1 -7 -7 -10 -6 -4 -6 -5 -6 -7 -5 -6 -7 -6 -6 -7 -9 -8 -6 -7 -11 -16 -9 -7 -5 -7 -10 -10 -10 -8 -9 -10 -9
4 0 0 1 3 2 -3 -1 -1 -2 -1 -1 -1 -5 -10 -10 -8 -8 -6 -6 -7 -6 -6 -7 -7 -8 -8 -8 -8 -6 -7 -8 -10 -12 -10 -7 -11 -8 -9 -11 -10 -8 -9 -10 -10
4 0 -1 -0 -0 1 -0 -0 -1 -2 -1 -2 -6 -12 -13 -13 -12 -6 -6 -7 -6 -5 -5 -6 -7 -9 -9 -12 -9 -9 -8 -7 -8 -8 -11 -7 -9 -9 -9 -11 -10 -8 -10 -10 -10
5 1 -0 -0 -0 0 0 -0 -1 -2 -2 -3 -4 -8 -8 -6 -6 -7 -6 -6 -5 -5 -8 -8 -10 -8 -10 -10 -8 -9 -8 -9 -10 -10 -9 -14 -9 -10 -11 -13 -9 -9 -10 -10 -10
4 2 1 1 1 1 1 1 0 -2 -2 -3 -1 -5 -7 -7 -6 -7 -6 -6 -6 -6 -7 -7 -4 -9 -10 -7 -7 -5 -7 -6 -7 -7 -7 -8 -7 -10 -10 -10 -9 -9 -9 -10 -10
3 3 3 1 0 2 1 1 1 -2 -2 -2 -3 -2 -5 -9 -8 -7 -8 -8 -7 -6 -7 -7 -7 -8 -13 -8 -10 -10 -11 -7 -7 -10 -8 -7 -11 -9 -11 -10 -9 -9 -9 -10 -10

GFSSW_850_dewp_294.txt.gz
Dewpoint
-24 -24 -24 -23 -22 -20 -16 -12 -14 -16 -18 -18 -20 -22 -24 -16 -20 -13 -25 -15 -8 -10 -13 -12 -9 -8 -10 -8 -7 -5 -7 -5 -8 -8 -9 -6 -4 -2 -2 -2 -3 -4 -5 -6 -5
-19 -21 -22 -21 -20 -19 -18 -14 -12 -14 -16 -18 -18 -22 -21 -21 -17 -11 -24 -20 -18 -13 -13 -13 -10 -7 -8 -7 -8 -7 -9 -9 -9 -9 -6 -5 -3 -2 -3 -3 -4 -6 -7 -5 -5
-8 -16 -19 -19 -17 -16 -16 -15 -12 -13 -15 -18 -18 -22 -19 -23 -22 -19 -25 -20 -18 -12 -12 -15 -11 -7 -8 -7 -6 -6 -9 -8 -8 -8 -6 -5 -2 -3 -3 -3 -6 -5 -6 -6 -5
2 -5 -13 -16 -15 -13 -14 -14 -11 -12 -16 -18 -18 -22 -20 -22 -19 -21 -24 -19 -17 -10 -14 -13 -9 -8 -9 -10 -8 -7 -7 -7 -7 -7 -5 -4 -3 -3 -3 -6 -9 -8 -8 -7 -5
5 4 -1 -9 -13 -11 -12 -12 -11 -11 -17 -18 -18 -22 -20 -17 -18 -20 -24 -19 -13 -12 -12 -11 -10 -10 -8 -9 -8 -6 -6 -6 -7 -7 -5 -2 -1 -1 -2 -8 -9 -10 -9 -8 -6
5 5 4 -5 -11 -9 -9 -10 -10 -13 -16 -17 -18 -22 -18 -15 -19 -23 -22 -16 -14 -11 -10 -10 -9 -8 -9 -9 -8 -7 -6 -7 -7 -6 -2 -1 -2 -2 -3 -7 -9 -11 -10 -8 -7
7 6 6 3 -3 -1 -1 -2 -6 -10 -12 -15 -19 -21 -18 -17 -19 -20 -22 -16 -13 -11 -10 -9 -8 -10 -9 -9 -9 -7 -7 -9 -8 -3 -1 -2 -1 -2 -4 -6 -8 -10 -9 -8 -7
7 7 6 6 5 4 4 4 0 -4 -11 -15 -20 -18 -17 -16 -17 -19 -21 -19 -13 -13 -10 -8 -8 -10 -11 -10 -10 -8 -8 -10 -9 -3 -2 -4 -1 -3 -4 -6 -9 -10 -9 -8 -7
8 7 6 6 6 6 6 5 3 -2 -11 -16 -17 -15 -14 -17 -18 -18 -19 -18 -14 -12 -9 -9 -8 -12 -11 -11 -12 -8 -12 -8 -8 -5 -2 -2 -2 -3 -5 -9 -9 -10 -9 -8 -7
9 7 7 6 6 7 7 6 3 -2 -9 -15 -17 -14 -12 -16 -11 -1 2 -3 -7 -6 -9 -8 -13 -11 -9 -10 -9 -14 -8 -7 -7 -8 -7 -4 -2 -3 -7 -9 -9 -10 -9 -8 -7
8 9 8 7 6 6 6 6 0 -2 -6 -11 -13 -15 -13 -14 -12 -13 -7 -7 -11 -10 -9 -9 -14 -11 -11 -9 -8 -7 -7 -6 -8 -7 -6 -4 -2 -3 -5 -9 -9 -10 -9 -8 -8
9 9 9 8 7 7 7 6 1 2 1 3 -1 -12 -12 -14 -16 -14 -4 -11 -12 -10 -11 -11 -13 -15 -11 -9 -9 -9 -7 -6 -8 -9 -7 -5 -2 -4 -5 -8 -10 -12 -9 -8 -8
9 9 9 8 8 7 7 5 3 3 4 3 -12 -13 -14 -17 -10 -10 -12 -11 -12 -11 -12 -10 -14 -11 -9 -9 -9 -8 -6 -7 -8 -8 -5 -2 -2 -5 -8 -9 -11 -13 -10 -9 -8
8 8 9 8 8 7 6 6 4 4 5 1 -14 -15 -16 -14 -9 -10 -11 -9 -11 -11 -14 -15 -11 -11 -11 -12 -8 -6 -8 -7 -7 -4 -3 -3 -2 -5 -7 -8 -11 -12 -10 -9 -8
7 8 9 8 7 6 7 6 4 5 8 -11 -15 -16 -14 -12 -12 -9 -11 -11 -10 -10 -10 -12 -12 -11 -15 -13 -10 -8 -8 -7 -5 -3 -2 -4 -4 -5 -8 -8 -9 -11 -10 -9 -8
8 9 9 8 7 6 7 6 5 5 5 -8 -13 -13 -11 -8 -10 -11 -10 -10 -8 -9 -12 -13 -10 -11 -10 -10 -10 -8 -6 -8 -8 -4 -5 -7 -5 -4 -8 -9 -9 -11 -10 -10 -9
7 7 8 7 7 7 6 5 6 8 -1 -4 -11 -11 -5 0 -6 -4 -4 -5 -3 -3 -3 -10 -13 -12 -9 -11 -11 -8 -7 -7 -10 -11 -9 -9 -3 -5 -10 -9 -12 -11 -10 -10 -9
7 8 8 6 6 6 5 5 7 5 4 -8 -5 -2 -11 -13 -13 -10 -5 -3 -6 -3 -3 -5 -6 -9 -10 -9 -8 -6 -9 -9 -22 -12 -9 -6 -4 -5 -8 -10 -11 -11 -10 -10 -9
6 7 7 6 6 5 5 6 7 4 -1 -1 -0 4 3 -12 -7 -8 -8 -5 -6 -4 -4 -3 -11 -10 -9 -9 -12 -11 -6 -7 -9 -9 -8 -8 -8 -10 -8 -10 -11 -11 -10 -10 -9
5 5 5 4 4 4 3 6 5 -1 -4 -2 6 4 -2 -9 -4 -3 -7 -6 -5 -6 -6 -5 -5 -9 -8 -11 -10 -9 -8 -10 -9 -18 -19 -12 -9 -7 -8 -9 -11 -11 -11 -11 -8
4 4 3 3 3 3 4 4 3 -2 -0 2 4 4 -1 -6 -5 -0 -1 -5 -5 -6 -7 -6 -5 -5 -10 -8 -7 -8 -10 -6 -8 -10 -14 -11 -13 -12 -13 -14 -12 -12 -10 -11 -9
4 4 2 2 2 2 3 3 -1 -2 -1 1 1 2 3 -2 -1 -4 -4 -5 -6 -7 -5 -5 -5 -4 -7 -8 -7 -8 -8 -10 -11 -20 -11 -11 -10 -9 -12 -12 -11 -11 -10 -11 -9
4 1 1 2 3 2 0 0 -0 -1 -1 1 1 0 -2 -1 2 -7 -6 -5 -6 -6 -5 -6 -6 -5 -5 -6 -8 -6 -7 -10 -12 -13 -12 -11 -15 -11 -9 -11 -11 -10 -11 -11 -9
3 1 -0 0 -0 1 2 2 2 -1 -0 -0 0 -2 -3 -2 -8 -4 -5 -6 -6 -5 -5 -7 -6 -5 -5 -7 -8 -7 -7 -8 -10 -10 -14 -9 -11 -13 -13 -12 -11 -10 -11 -11 -10
3 2 1 0 -0 0 0 1 1 1 -1 -1 -1 -1 -1 -2 -3 -3 -6 -5 -6 -4 -7 -7 -9 -7 -10 -10 -8 -8 -8 -8 -11 -13 -12 -16 -11 -12 -12 -14 -10 -9 -11 -11 -11
3 2 1 0 1 -0 1 2 2 0 -1 -1 -0 -1 -2 -2 -1 -4 -5 -6 -7 -7 -8 -7 -4 -9 -10 -8 -8 -7 -8 -7 -9 -9 -11 -10 -9 -12 -11 -10 -10 -9 -11 -11 -11
2 2 3 1 0 1 1 2 1 -0 -0 -1 -1 -2 -2 -3 -5 -7 -8 -8 -6 -6 -8 -7 -7 -9 -10 -7 -9 -9 -9 -7 -8 -10 -10 -8 -13 -11 -10 -10 -10 -9 -11 -11 -11

GFSSW_850_dewp_300.txt.gz
Dewpoint
2 -1 -6 -10 -14 -13 -12 -12 -11 -10 -9 -12 -15 -16 -18 -20 -20 -23 -17 -19 -7 -18 -15 -16 -12 -8 -9 -7 -5 -9 -7 -5 -8 -8 -10 -6 -6 -3 -2 -3 -3 -3 -4 -7 -7
4 5 4 0 -6 -11 -10 -9 -9 -8 -9 -12 -14 -15 -17 -19 -20 -17 -22 -24 -21 -18 -14 -17 -11 -8 -8 -7 -6 -7 -9 -11 -10 -10 -9 -6 -6 -4 -3 -3 -3 -5 -7 -8 -8
5 5 5 5 -0 -6 -6 -5 -5 -6 -7 -10 -10 -11 -15 -18 -16 -18 -21 -23 -21 -16 -15 -15 -12 -7 -8 -7 -6 -7 -11 -10 -10 -9 -7 -6 -5 -3 -4 -3 -4 -7 -8 -9 -9
7 7 6 6 4 0 -1 1 2 1 -0 -2 -5 -9 -13 -17 -9 -19 -22 -22 -17 -15 -13 -11 -8 -8 -9 -10 -8 -8 -8 -8 -7 -7 -5 -4 -3 -3 -3 -4 -7 -7 -8 -9 -9
8 8 7 6 6 5 5 4 5 5 4 1 -3 -7 -12 -12 -16 -19 -21 -20 -16 -13 -12 -11 -10 -10 -10 -10 -8 -7 -7 -6 -6 -6 -6 -3 -4 -4 -3 -5 -6 -8 -11 -11 -10
8 7 8 7 7 5 5 5 5 5 6 3 0 -6 -14 -8 -15 -19 -20 -19 -15 -11 -10 -9 -9 -9 -10 -9 -8 -7 -6 -7 -7 -7 -6 -4 -2 -1 -2 -4 -7 -11 -12 -12 -10
8 8 8 8 7 6 5 6 6 5 5 5 -0 -8 -10 -10 -16 -17 -19 -19 -15 -13 -9 -9 -9 -9 -9 -9 -8 -8 -8 -8 -8 -5 -3 -1 -0 -1 -3 -5 -10 -11 -12 -12 -11
9 8 8 8 8 7 6 6 6 5 5 2 -3 -9 -10 -13 -15 -17 -14 -10 -10 -13 -10 -8 -7 -9 -9 -8 -9 -8 -8 -7 -8 -4 -2 -3 -7 -3 -3 -9 -9 -10 -11 -12 -12
8 8 9 8 7 8 8 7 5 6 3 -1 -5 -12 -11 -14 -16 -16 -9 -5 -1 -3 -3 -3 -4 -7 -9 -10 -11 -9 -11 -13 -12 -5 -2 -3 -4 -3 -4 -9 -8 -8 -10 -11 -11
10 9 9 9 8 7 8 7 6 4 -1 0 -4 -5 -9 -14 -13 -11 -10 -6 0 -1 -3 -8 -9 -8 -9 -11 -7 -17 -15 -11 -11 -9 -5 -4 -3 -5 -4 -7 -6 -9 -10 -10 -11
8 8 8 8 9 9 8 7 4 2 4 2 -1 -5 -11 -13 -10 -11 -10 -1 -8 -6 -3 -8 -8 -6 -13 -11 -10 -10 -10 -10 -12 -10 -7 -7 -6 -6 -5 -5 -6 -9 -9 -9 -10
4 4 5 7 9 9 8 8 6 4 4 3 2 -1 -6 -10 -12 -9 -14 -9 -12 -11 -7 -8 -6 -13 -11 -9 -10 -11 -11 -12 -11 -9 -9 -9 -6 -1 -4 -4 -6 -9 -10 -9 -9
3 4 6 9 9 8 7 8 6 5 5 4 -6 -12 -14 -15 -11 -10 -13 -10 -12 -10 -10 -9 -12 -11 -11 -9 -10 -12 -11 -10 -10 -10 -8 -3 0 -1 -5 -8 -9 -13 -13 -10 -8
-2 1 5 7 7 8 7 7 6 5 8 3 -10 -14 -16 -15 -12 -12 -13 -10 -10 -12 -13 -13 -11 -11 -12 -14 -11 -11 -9 -9 -8 -5 1 -4 2 -1 -5 -4 -15 -14 -13 -9 -8
-9 7 8 7 8 7 7 6 6 6 10 -5 -12 -14 -14 -13 -12 -8 -11 -9 -10 -11 -10 -11 -13 -12 -14 -13 -11 -10 -9 -5 -4 -2 -2 -1 1 -3 -7 -9 -12 -12 -11 -10 -8
3 7 8 8 7 5 5 4 6 7 9 -6 -14 -15 -14 -8 -9 -8 -9 -10 -8 -9 -12 -11 -9 -11 -10 -10 -10 -9 -6 -6 -6 -1 3 -2 -1 -4 -5 -5 -9 -10 -11 -10 -7
1 5 7 7 7 5 4 5 7 8 1 -1 -8 -11 -9 -2 -7 -4 2 1 -5 -2 -2 -10 -12 -11 -10 -12 -10 -10 -6 1 2 2 2 -5 -5 -1 -5 -7 -7 -7 -10 -9 -7
4 5 5 6 6 6 5 5 8 6 5 -4 -8 -4 -1 -11 -11 -11 -7 -3 -6 -3 -4 -7 -3 -10 -10 -11 -10 -8 -8 -3 -5 -3 -8 -8 -2 -4 -8 -9 -8 -10 -9 -9 -7
3 4 4 5 5 5 4 5 6 6 1 -0 1 5 4 -6 -8 -0 -7 -7 -7 -1 -2 -3 -11 -9 -10 -11 -11 -9 -5 -7 -4 -6 -9 -13 -13 -12 -11 -15 -12 -11 -10 -9 -7
2 2 2 4 4 4 4 5 3 1 -3 -1 6 6 7 -3 -3 1 1 -7 -5 -7 -6 -2 -4 -10 -9 -11 -10 -9 -9 -5 -4 -4 -6 -16 -14 -14 -11 -9 -10 -9 -9 -10 -7
2 2 1 2 3 3 5 3 3 -1 1 2 5 6 5 -1 -5 2 3 -4 -7 -6 -7 -5 -3 -3 -8 -9 -10 -9 -6 -7 -7 -6 -5 -12 -12 -7 -7 -6 -7 -9 -9 -10 -8
2 3 1 2 3 2 4 2 1 1 0 2 2 3 4 2 2 -1 -2 -3 -7 -8 -6 -7 -3 -5 -6 -8 -8 -9 -10 -10 -9 -5 -7 -7 -12 -5 -6 -7 -9 -9 -10 -10 -7
2 2 1 2 4 3 1 1 1 1 1 1 2 2 2 2 4 -1 -7 -5 -6 -8 -5 -5 -4 -3 -2 -4 -8 -7 -8 -11 -10 -8 -6 -8 -14 -10 -11 -9 -9 -9 -11 -11 -8
1 2 1 1 1 2 3 3 3 0 1 1 1 -1 -0 1 -1 2 -5 -6 -6 -3 -5 -7 -5 -5 -8 -4 -5 -4 -5 -10 -9 -10 -7 -9 -11 -14 -15 -8 -9 -9 -12 -10 -8
1 2 2 2 1 1 1 2 3 3 -0 -0 1 1 1 2 -1 -0 -2 -4 -6 -3 -2 -6 -7 -7 -12 -13 -9 -8 -5 -6 -7 -12 -11 -10 -10 -12 -10 -8 -9 -10 -11 -10 -9
1 1 1 1 1 1 1 2 2 3 1 1 1 1 1 2 1 1 -1 -2 -5 -5 -4 -5 -5 -9 -8 -10 -10 -9 -10 -8 -7 -9 -13 -12 -10 -12 -10 -10 -9 -8 -11 -10 -9
1 0 2 2 0 1 2 2 2 2 2 1 -0 1 -0 0 -1 -7 -2 -4 -7 -4 -3 -5 -5 -7 -5 -9 -7 -2 -5 -6 -7 -8 -10 -12 -12 -12 -10 -11 -9 -9 -11 -11 -11

GFSSW_850_dewp_306.txt.gz
Dewpoint
6 6 6 6 5 3 0 0 2 3 4 3 2 2 0 -1 -2 -7 -9 -12 -22 -23 -21 -10 -11 -9 -7 -6 -5 -4 -2 -2 -5 -6 -6 -7 -7 -6 -5 -5 -4 -5 -5 -5 -6
7 7 7 7 6 5 4 4 4 5 4 4 4 3 2 -0 -2 -6 -12 -21 -22 -22 -17 -10 -11 -11 -8 -7 -6 -3 -2 -5 -10 -10 -9 -7 -8 -5 -5 -6 -7 -5 -5 -5 -6
8 8 8 8 7 7 6 5 5 5 5 5 5 4 2 -1 -3 -14 -16 -18 -22 -20 -11 -10 -9 -9 -8 -8 -6 -7 -5 -9 -11 -10 -9 -8 -7 -7 -5 -4 -6 -6 -6 -6 -7
10 9 9 8 7 7 7 5 5 5 5 5 5 4 4 -2 -3 -15 -12 -18 -21 -17 -9 -9 -9 -9 -6 -6 -9 -7 -9 -10 -8 -8 -7 -6 -5 -5 -5 -4 -5 -5 -6 -7 -9
10 10 10 9 8 7 8 7 6 6 6 5 5 5 2 -4 -6 -11 -11 -17 -15 -11 -10 -9 -10 -11 -8 -10 -12 -8 -9 -8 -8 -7 -6 -6 -4 -3 -4 -4 -5 -5 -7 -9 -10
10 10 10 10 9 8 8 8 8 8 7 6 5 4 -2 -3 -6 -6 -12 -17 -14 -11 -9 -9 -9 -10 -10 -11 -9 -8 -9 -8 -8 -7 -7 -6 -5 -4 -4 -4 -4 -5 -7 -9 -9
9 8 10 10 9 8 8 8 7 8 8 7 5 0 -2 -4 -7 -8 -11 -16 -15 -12 -8 -7 -7 -7 -7 -5 -7 -9 -7 -6 -8 -8 -7 -3 -2 -3 -4 -3 -4 -4 -8 -8 -8
7 9 10 10 9 8 7 8 8 7 7 6 3 -2 -3 -7 -8 -10 -12 -8 -8 -7 -7 -6 -5 -4 -8 -6 -6 -4 -5 -1 -6 -7 -2 -4 -6 -3 -4 -3 -3 -6 -7 -7 -7
6 8 9 9 9 6 7 8 8 8 7 4 -1 -4 -4 -8 -9 -12 -7 -8 -6 -4 -4 -4 -4 -3 -5 -2 2 3 -0 -3 -6 -6 -2 -3 -3 -3 -3 -3 -4 -7 -6 -5 -6
-3 -1 2 4 4 4 7 7 8 7 3 1 -1 -6 -5 -8 -10 -7 -8 -5 -4 -0 -0 -3 -5 -5 -6 -4 6 4 -2 -7 -10 -7 -6 -2 -2 -4 -6 -3 -3 -5 -4 -6 -11
-9 -14 -10 -1 -0 2 4 6 6 4 -1 -1 3 4 3 -6 -5 -9 -7 -8 -4 -4 -1 -2 -3 1 -1 -3 -6 -6 -1 -5 -15 -8 -8 -6 -7 -7 -8 -6 -3 -2 -4 -8 -12
-7 -8 -15 -7 3 5 7 8 7 5 5 5 5 2 0 -2 -5 -8 -9 -12 -8 -8 -8 -3 -2 -10 -11 -11 -10 -11 -11 -13 -13 -10 -9 -8 -7 -1 -3 -3 -2 -5 -8 -10 -11
-7 -9 -9 4 6 7 8 7 7 7 5 4 1 -3 -9 -13 -12 -9 -11 -12 -11 -9 -9 -7 -10 -13 -13 -11 -9 -10 -11 -12 -10 -10 -9 -5 0 0 -3 -3 -7 -12 -14 -12 -9
-5 1 7 7 7 6 6 6 6 5 7 5 -5 -12 -14 -13 -11 -11 -10 -12 -10 -11 -12 -12 -12 -12 -12 -12 -13 -9 -9 -9 -9 -6 1 -5 1 0 -1 -3 -12 -15 -11 -10 -10
-5 3 7 7 7 7 5 6 5 4 8 -6 -11 -11 -14 -13 -13 -9 -9 -9 -8 -9 -12 -9 -12 -11 -10 -12 -13 -8 -8 -9 -7 -3 -2 -1 2 0 -4 -7 -10 -11 -9 -10 -9
-5 3 6 7 5 5 4 5 5 6 8 -0 -5 -6 1 1 -2 -8 -6 -9 -9 -9 -9 -10 -11 -11 -10 -11 -11 -10 -8 -6 -5 -1 2 1 0 -1 -4 -7 -7 -7 -9 -11 -8
-1 3 4 5 5 4 4 5 6 7 4 5 4 0 1 2 -1 -1 1 2 1 1 2 -7 -10 -10 -11 -7 -9 -8 -3 3 5 4 5 -1 -4 -2 -10 -9 -8 -8 -8 -11 -8
1 1 3 5 5 4 5 6 5 4 6 -0 -3 -1 -2 -0 -4 -7 -4 -0 -1 -2 1 1 -1 -9 -10 -9 -9 -9 -6 2 2 2 -1 -3 -4 -1 -13 -11 -12 -8 -12 -10 -7
1 4 2 3 4 5 4 5 5 5 2 3 1 4 4 -2 -4 -1 1 -0 -3 -1 2 2 -4 -10 -11 -12 -11 -8 -1 -6 -1 -2 -5 -5 -8 -9 -15 -12 -10 -11 -9 -9 -7
-1 3 2 3 4 5 5 5 3 1 1 2 3 2 3 4 0 1 4 -3 -4 -6 -4 0 2 -9 -9 -10 -10 -9 -9 -0 -0 2 -0 -8 -11 -5 -9 -7 -7 -8 -8 -8 -7
-0 2 3 1 2 4 4 3 1 1 2 3 4 5 4 5 3 5 4 -3 -5 -6 -8 -3 -1 -4 -8 -7 -7 -6 -1 -6 -6 -2 -0 -0 -2 -7 -10 -10 -9 -9 -8 -8 -6
3 3 2 2 2 2 1 2 1 1 2 2 3 3 4 3 4 4 2 2 -1 -5 -2 -6 1 1 -4 -8 -9 -8 -9 -9 -1 -1 -3 -4 -6 -6 -8 -9 -7 -8 -10 -8 -6
2 2 1 1 2 2 1 1 1 1 3 2 3 2 2 3 4 3 -1 -2 -1 -2 -2 -3 -1 1 2 -2 -8 -7 -8 -7 -7 -5 -4 -3 -3 -8 -8 -10 -8 -9 -9 -7 -7
2 2 1 1 1 1 2 2 3 2 2 2 2 2 2 3 2 3 2 -1 -2 -1 -2 -6 -1 -0 1 -0 -1 -4 -4 -9 -7 -2 -4 -7 -7 -10 -10 -9 -9 -10 -9 -8 -7
2 1 1 2 2 2 2 1 1 3 1 1 1 2 2 3 1 1 2 -1 -2 -1 -1 -3 -1 -3 -5 -8 -8 -6 -2 -5 -7 -7 -10 -7 -13 -9 -8 -10 -9 -8 -9 -8 -7
2 1 1 1 1 1 1 2 0 2 2 1 2 2 1 2 2 2 2 0 1 -1 -0 -2 1 -7 -3 -9 -10 -8 -8 -4 -6 -7 -8 -9 -9 -9 -9 -10 -8 -9 -9 -9 -7
1 2 1 1 1 1 0 1 -0 1 0 0 1 1 0 1 -1 -1 -1 -2 -2 -1 -1 -1 -0 -1 -0 -10 -4 -1 -4 -5 -5 -6 -9 -9 -10 -11 -11 -12 -9 -12 -9 -10 -7